Location: Oak Harbor
(48.2930°N, 122.6420°W)
Time: 23:00:57
(UTC-07:00)

S-56A Canister/Altair - All Passes

Search period start: 09 June 2026 00:00
Search period end: 19 June 2026 00:00
Orbit: 632 x 2484 km, 38.9° (Epoch: 8 June)

Date Brightness Start Highest point End Pass type
(mag) Time Alt. Az. Time Alt. Az. Time Alt. Az.
9 Jun - 10:15:37 10° SSE 10:21:16 13° SE 10:26:33 10° ESE daylight
9 Jun - 12:13:18 10° SSW 12:25:10 33° SSE 12:34:37 10° E daylight
9 Jun - 14:17:13 10° WSW 14:29:41 48° S 14:38:30 10° E daylight
9 Jun - 16:23:10 10° W 16:33:51 46° SSW 16:41:07 10° ESE daylight
9 Jun - 18:29:55 10° W 18:36:44 23° SW 18:41:53 10° SSE daylight
10 Jun - 09:42:37 10° SE 09:45:58 11° SE 09:49:13 10° ESE daylight
10 Jun - 11:37:57 10° SSW 11:49:42 31° SSE 11:59:26 10° E daylight
10 Jun - 13:41:21 10° SW 13:54:17 48° SSE 14:03:40 10° E daylight
10 Jun - 15:47:10 10° WSW 15:58:41 49° S 16:06:31 10° ESE daylight
10 Jun - 17:53:51 10° W 18:01:53 28° SSW 18:07:46 10° SSE daylight
11 Jun - 11:02:44 10° SSW 11:14:14 28° SE 11:24:06 10° E daylight
11 Jun - 13:05:33 10° SW 13:18:48 47° SSE 13:28:45 10° E daylight
11 Jun - 15:11:10 10° WSW 15:23:25 51° S 15:31:52 10° ESE daylight
11 Jun - 17:17:47 10° W 17:26:58 33° SSW 17:33:31 10° SSE daylight
12 Jun - 10:27:41 10° S 10:38:45 26° SE 10:48:37 10° E daylight
12 Jun - 12:29:49 10° SW 12:43:16 46° SSE 12:53:44 10° E daylight
12 Jun - 14:35:10 10° WSW 14:48:04 53° S 14:57:09 10° ESE daylight
12 Jun - 16:41:42 10° W 16:51:57 37° SSW 16:59:09 10° SE daylight
12 Jun - 18:50:26 10° WSW 18:54:07 13° SW 18:57:19 10° SSW daylight
13 Jun - 09:52:49 10° S 10:03:18 24° SE 10:12:57 10° E daylight
13 Jun - 11:54:11 10° SW 12:07:42 44° SSE 12:18:39 10° E daylight
13 Jun - 13:59:11 10° WSW 14:12:37 54° S 14:22:20 10° ESE daylight
13 Jun - 16:05:37 10° W 16:16:51 42° SSW 16:24:42 10° SE daylight
13 Jun - 18:13:32 10° W 18:19:21 17° SW 18:24:04 10° S daylight
14 Jun - 09:18:12 10° S 09:27:52 21° SE 09:37:03 10° E daylight
14 Jun - 11:18:39 10° SW 11:32:06 42° SSE 11:43:27 10° E daylight
14 Jun - 13:23:14 10° WSW 13:37:06 55° S 13:47:27 10° ESE daylight
14 Jun - 15:29:32 10° W 15:41:38 46° SSW 15:50:08 10° SE daylight
14 Jun - 17:37:02 10° W 17:44:30 21° SW 17:50:18 10° S daylight
15 Jun - 08:43:53 10° S 08:52:28 18° SE 09:00:52 10° E daylight
15 Jun - 10:43:14 10° SW 10:56:28 40° SSE 11:08:08 10° E daylight
15 Jun - 12:47:22 10° WSW 13:01:30 55° S 13:12:29 10° E daylight
15 Jun - 14:53:28 10° W 15:06:18 49° SSW 15:15:29 10° SE daylight
15 Jun - 17:00:41 10° W 17:09:35 26° SW 17:16:18 10° SSE daylight
16 Jun - 08:09:58 10° SSE 08:17:08 15° SE 08:24:17 10° E daylight
16 Jun - 10:07:59 10° SSW 10:20:51 37° SSE 10:32:42 10° E daylight
16 Jun - 12:11:34 10° WSW 12:25:51 54° S 12:37:24 10° E daylight
16 Jun - 14:17:25 10° W 14:30:53 52° SSW 14:40:44 10° ESE daylight
16 Jun - 16:24:24 10° W 16:34:34 31° SW 16:42:06 10° SSE daylight
17 Jun - 07:36:47 10° SSE 07:41:51 13° SE 07:46:58 10° ESE daylight
17 Jun - 09:32:51 10° SSW 09:45:16 34° SE 09:57:08 10° E daylight
17 Jun - 11:35:51 10° WSW 11:50:09 53° SSE 12:02:14 10° E daylight
17 Jun - 13:41:25 10° W 13:55:22 55° S 14:05:54 10° ESE daylight
17 Jun - 15:48:12 10° W 15:59:26 35° SSW 16:07:44 10° SSE daylight
17 Jun - 17:59:06 10° WSW 18:01:31 11° SW 18:03:45 10° SW daylight
18 Jun - 08:57:55 10° SSW 09:09:42 31° SE 09:21:25 10° E daylight
18 Jun - 11:00:16 10° SW 11:14:25 51° SSE 11:26:58 10° E daylight
18 Jun - 13:05:28 10° WSW 13:19:46 56° S 13:30:57 10° ESE daylight
18 Jun - 15:12:02 10° W 15:24:12 39° SSW 15:33:15 10° SE daylight
18 Jun - 17:21:06 10° W 17:26:40 15° SW 17:31:26 10° SSW daylight
